Location: Winthrop
(48.4780°N, 120.1850°W)
Time: 17:35:15
(UTC-07:00)

CAS-4B - Pass Details

Date: 27 May 2022
Orbit: 523 x 537 km, 43.0° (Epoch: 29 June)

Event Time Altitude Azimuth Distance (km) Brightness Sun altitude
Rises 22:29:39 0° 268° (W) 2,656 ? -12.6°
Reaches altitude 10° 22:32:21 10° 251° (WSW) 1,762 ? -12.9°
Maximum altitude 22:35:14 19° 205° (SSW) 1,279 ? -13.1°
Enters shadow 22:36:28 17° 181° (S) 1,377 ? -13.2°
